Lake Fork, ID

1:20 AM MST on February 08, 2016 (GMT -0700)
McCall

Weather History for KMYL - October, 2012

Change the Weather History Date:

Wednesday, October 24, 2012

  Actual Average Record
Temperature  
Mean Temperature 23 °F 38 °F  
Max Temperature 31 °F 51 °F 69 °F (1933)
Min Temperature 15 °F 24 °F 10 °F (1975)
Degree Days  
Heating Degree Days 42 28  
Month to date heating degree days 568 577  
Since 1 July heating degree days 892 1342  
Cooling Degree Days 0 0  
Month to date cooling degree days 0 0  
Year to date cooling degree days 172 25  
Moisture  
Dew Point 23 °F    
Average Humidity 86    
Maximum Humidity 100    
Minimum Humidity 72    
Precipitation  
Precipitation 0.01 in 0.06 in 0.83 in (1996)
Month to date precipitation 1.98 0.97  
Year to date precipitation 20.29 14.89  
Sea Level Pressure  
Sea Level Pressure 30.00 in    
Wind  
Wind Speed 0 mph (NW)    
Max Wind Speed 5 mph    
Max Gust Speed 6 mph    
Visibility 4 miles    
Events Fog , Snow    
T = Trace of Precipitation, MM = Missing Value Source: NWS Daily Summary

Daily Weather History Graph

Daily Weather History Graph

Search for Another Location

Airport or City:

Trip Planner

Search our weather history database for the weather conditions in past years. The results will help you decide how hot, cold, wet, or windy it might be!

Date:

Astronomy

Oct. 24, 2012 Rise Set
Actual Time 8:12 AM MDT 6:43 PM MDT
Civil Twilight 7:42 AM MDT 7:13 PM MDT
Nautical Twilight 7:08 AM MDT 7:47 PM MDT
Astronomical Twilight 6:34 AM MDT 8:21 PM MDT
Moon 4:12 PM MDT (10/24) 3:00 AM MDT (10/24)
Length of Visible Light 11h 31m
Length of Day
10h 31m
Waxing Gibbous, 76% of the Moon is Illuminated
Oct 24
Waxing Gibbous
Oct 29
Full
Nov 6
Last Quarter
Nov 13
New
Nov 20
First Quarter

Hourly Weather History & Observations

Time (MDT) Temp. Windchill Dew Point Humidity Pressure Visibility Wind Dir Wind Speed Gust Speed Precip Events Conditions
12:51 AM 25.0 °F - 19.9 °F 81% 30.02 in 0.8 mi Calm Calm - N/A   Haze
1:51 AM 23.0 °F - 17.1 °F 78% 30.03 in 0.5 mi Calm Calm - N/A   Haze
2:09 AM 21.2 °F - 17.6 °F 86% 29.93 in 1.2 mi Calm Calm - N/A   Haze
2:13 AM 21.2 °F - 17.6 °F 86% 29.93 in 2.0 mi Calm Calm - N/A   Overcast
2:17 AM 21.2 °F - 17.6 °F 86% 29.93 in 1.0 mi Calm Calm - N/A   Overcast
2:23 AM 21.2 °F - 17.6 °F 86% 29.93 in 0.5 mi Calm Calm - N/A   Haze
2:30 AM 21.2 °F - 15.8 °F 80% 29.93 in 0.5 mi Calm Calm - N/A   Haze
2:40 AM 21.2 °F - 15.8 °F 80% 29.93 in 1.2 mi Calm Calm - N/A   Haze
2:43 AM 21.2 °F - 15.8 °F 80% 29.93 in 3.0 mi Calm Calm - N/A   Haze
2:51 AM 21.0 °F - 15.1 °F 78% 30.03 in 10.0 mi Calm Calm - N/A   Overcast
3:17 AM 19.4 °F 14.3 °F 14.0 °F 80% 29.93 in 10.0 mi NE 3.5 mph - N/A   Mostly Cloudy
3:51 AM 19.0 °F - 12.9 °F 77% 30.04 in 10.0 mi Calm Calm - N/A   Clear
4:01 AM 17.6 °F - 12.2 °F 79% 29.93 in 10.0 mi Calm Calm - N/A   Partly Cloudy
4:38 AM 15.8 °F - 10.4 °F 79% 29.92 in 1.5 mi Calm Calm - N/A   Haze
4:41 AM 17.6 °F - 10.4 °F 73% 29.92 in 0.8 mi Calm Calm - N/A   Haze
4:51 AM 17.1 °F - 10.9 °F 77% 30.05 in 0.5 mi Calm Calm - N/A   Haze
5:51 AM 21.0 °F - 15.1 °F 78% 30.04 in 0.2 mi Calm Calm - 0.00 in   Haze
7:51 AM 18.0 °F - 12.9 °F 81% 30.06 in 0.5 mi Calm Calm - N/A   Haze
8:51 AM 17.1 °F - 10.9 °F 77% 30.07 in 0.2 mi Calm Calm - N/A   Haze
9:51 AM 21.9 °F - 16.0 °F 78% 30.08 in 0.2 mi Calm Calm - N/A   Haze
10:51 AM 28.9 °F - 21.9 °F 75% 30.06 in 0.2 mi Calm Calm - N/A   Haze
12:28 PM 30.2 °F - 24.8 °F 80% 29.95 in 1.2 mi Calm Calm - N/A   Haze
12:30 PM 30.2 °F - 24.8 °F 80% 29.95 in 4.0 mi Calm Calm - N/A   Haze
12:39 PM 30.2 °F - 23.0 °F 75% 29.95 in 10.0 mi Calm Calm - N/A   Overcast
12:51 PM 30.0 °F - 23.0 °F 75% 30.04 in 10.0 mi Calm Calm - N/A   Overcast
1:51 PM 30.9 °F - 25.0 °F 79% 30.04 in 10.0 mi Calm Calm - N/A   Overcast
2:43 PM 30.2 °F 26.7 °F 24.8 °F 80% 29.95 in 2.5 mi WSW 3.5 mph - 0.00 in Snow Light Snow
2:51 PM 28.9 °F - 25.0 °F 85% 30.06 in 1.2 mi Calm Calm - 0.00 in Snow Light Snow
2:59 PM 30.2 °F - 26.6 °F 86% 29.95 in 1.0 mi Calm Calm - N/A Snow Light Snow
3:06 PM 30.2 °F - 26.6 °F 86% 29.95 in 1.5 mi Calm Calm - 0.00 in Snow Light Snow
3:18 PM 30.2 °F - 26.6 °F 86% 29.95 in 2.5 mi Calm Calm - 0.00 in Snow Light Snow
3:23 PM 30.2 °F - 26.6 °F 86% 29.95 in 3.0 mi Calm Calm - 0.00 in Snow Light Snow
3:29 PM 30.2 °F - 26.6 °F 86% 29.95 in 4.0 mi Calm Calm - 0.00 in Snow Light Snow
3:41 PM 30.2 °F - 26.6 °F 86% 29.95 in 2.5 mi Calm Calm - 0.00 in Snow Light Snow
3:47 PM 30.2 °F - 26.6 °F 86% 29.95 in 4.0 mi Calm Calm - 0.00 in Snow Light Snow
3:51 PM 30.0 °F - 27.0 °F 88% 30.07 in 6.0 mi Calm Calm - 0.00 in   Overcast
4:40 PM 30.2 °F - 26.6 °F 86% 29.97 in 1.8 mi Calm Calm - 0.00 in Snow Light Snow
4:43 PM 30.2 °F - 26.6 °F 86% 29.97 in 1.0 mi Calm Calm - 0.00 in Snow Light Snow
4:49 PM 30.2 °F - 26.6 °F 86% 29.97 in 0.5 mi Calm Calm - 0.01 in Fog , Snow Snow
4:51 PM 28.9 °F - 27.0 °F 92% 30.09 in 0.5 mi Calm Calm - 0.01 in Fog , Snow Snow
5:02 PM 28.4 °F - 26.6 °F 93% 29.97 in 1.2 mi Calm Calm - 0.00 in Snow Light Snow
5:12 PM 28.4 °F - 28.4 °F 100% 29.97 in 3.0 mi Calm Calm - 0.00 in Snow Light Snow
5:22 PM 28.4 °F - 26.6 °F 93% 29.97 in 5.0 mi Calm Calm - 0.00 in Snow Light Snow
5:39 PM 30.2 °F - 28.4 °F 93% 29.98 in 2.5 mi Calm Calm - 0.00 in Snow Light Snow
5:51 PM 30.0 °F - 28.0 °F 92% 30.08 in 2.5 mi Calm Calm - 0.00 in Snow Light Snow
6:01 PM 28.4 °F - 28.4 °F 100% 29.98 in 3.0 mi Calm Calm - 0.00 in Snow Light Snow
6:51 PM 28.9 °F - 27.0 °F 92% 30.09 in 10.0 mi Calm Calm - 0.00 in   Overcast
7:10 PM 28.4 °F - 28.4 °F 100% 29.99 in 9.0 mi Calm Calm - N/A   Overcast
7:16 PM 28.4 °F - 28.4 °F 100% 29.99 in 10.0 mi Calm Calm - N/A   Overcast
7:31 PM 28.4 °F - 26.6 °F 93% 29.99 in 10.0 mi Calm Calm - N/A   Overcast
7:51 PM 28.9 °F - 27.0 °F 92% 30.12 in 6.0 mi Calm Calm - 0.00 in Snow Light Snow
8:00 PM 30.2 °F - 28.4 °F 93% 30.00 in 9.0 mi Calm Calm - 0.00 in   Overcast
8:32 PM 30.2 °F - 26.6 °F 86% 30.00 in 10.0 mi Calm Calm - N/A   Overcast
8:41 PM 28.4 °F - 26.6 °F 93% 30.01 in 7.0 mi Calm Calm - 0.00 in   Overcast
8:51 PM 28.0 °F - 27.0 °F 96% 30.14 in 3.0 mi Calm Calm - 0.00 in   Overcast
8:54 PM 28.4 °F - 26.6 °F 93% 30.01 in 1.8 mi Calm Calm - N/A   Overcast
9:07 PM 28.4 °F - 26.6 °F 93% 30.01 in 3.0 mi Calm Calm - N/A   Overcast
9:18 PM 28.4 °F - 26.6 °F 93% 30.01 in 4.0 mi Calm Calm - N/A   Overcast
9:35 PM 28.4 °F - 26.6 °F 93% 30.02 in 5.0 mi Calm Calm - N/A   Overcast
9:51 PM 28.9 °F - 28.0 °F 96% 30.13 in 6.0 mi Calm Calm - N/A   Overcast
10:31 PM 28.4 °F - 28.4 °F 100% 30.02 in 5.0 mi Calm Calm - N/A   Overcast
10:51 PM 28.9 °F - 27.0 °F 92% 30.11 in 6.0 mi Calm Calm - N/A   Overcast
11:51 PM 28.9 °F - 27.0 °F 92% 30.12 in 4.0 mi Calm Calm - 0.00 in   Overcast
11:59 PM 28.4 °F - 26.6 °F 93% 30.04 in 4.0 mi Calm Calm - N/A   Overcast